Weather History for VABB - January, 2014

Change the Weather History Date:

Sunday, January 19, 2014

  Actual Average Record
Temperature  
Mean Temperature 74 °F -  
Max Temperature 86 °F 86 °F - ()
Min Temperature 61 °F 67 °F - ()
Cooling Degree Days 8    
Growing Degree Days 24 (Base 50)    
Moisture  
Dew Point 56 °F    
Average Humidity 51    
Maximum Humidity 75    
Minimum Humidity 23    
Precipitation  
Precipitation 0.00 in - - ()
Sea Level Pressure  
Sea Level Pressure 29.99 in    
Wind  
Wind Speed 5 mph ()    
Max Wind Speed 12 mph    
Max Gust Speed -    
Visibility 1.7 miles    
Events      
T = Trace of Precipitation, MM = Missing Value Source: Averaged Metar Reports

Daily Weather History Graph

Daily Weather History Graph

Search for Another Location

Airport or City:

Trip Planner

Search our weather history database for the weather conditions in past years. The results will help you decide how hot, cold, wet, or windy it might be!

Date:

Astronomy

Jan. 19, 2014 Rise Set
Actual Time 7:14 AM IST 6:23 PM IST
Civil Twilight 6:51 AM IST 6:47 PM IST
Nautical Twilight 6:24 AM IST 7:13 PM IST
Astronomical Twilight 5:58 AM IST 7:40 PM IST
Moon 9:04 PM IST (1/19) 8:59 AM IST (1/19)
Length of Visible Light 11h 55m
Length of Day
11h 08m
Waning Gibbous, 92% of the Moon is Illuminated
Jan 19
Waning Gibbous
Jan 24
Last Quarter
Jan 31
New
Feb 7
First Quarter
Feb 15
Full

Hourly Weather History & Observations

Time (IST) Temp. Heat Index Dew Point Humidity Pressure Visibility Wind Dir Wind Speed Gust Speed Precip Events Conditions
12:10 AM 69.8 °F - 53.6 °F 56% 29.98 in 1.6 mi ENE 3.5 mph - N/A   Smoke
12:40 AM 69.8 °F - 53.6 °F 56% 29.98 in 1.6 mi ENE 3.5 mph - N/A   Smoke
1:10 AM 69.8 °F - 53.6 °F 56% 29.98 in 1.6 mi East 5.8 mph - N/A   Smoke
1:40 AM 68.0 °F - 50.0 °F 52% 29.98 in 1.6 mi East 5.8 mph - N/A   Smoke
2:10 AM 71.6 °F - 46.4 °F 41% 29.98 in 1.7 mi ESE 5.8 mph - N/A   Smoke
2:30 AM 62 °F - 54 °F 67% 29.96 in 1 mi Calm Calm - -   Smoke
3:10 AM 71.6 °F - 44.6 °F 38% 29.95 in 1.9 mi ENE 8.1 mph - N/A   Smoke
3:40 AM 71.6 °F - 44.6 °F 38% 29.95 in 1.9 mi NE 8.1 mph - N/A   Smoke
4:10 AM 71.6 °F - 42.8 °F 35% 29.95 in 1.9 mi ENE 6.9 mph - N/A   Smoke
4:40 AM 71.6 °F - 44.6 °F 38% 29.95 in 1.9 mi East 6.9 mph - N/A   Smoke
5:10 AM 71.6 °F - 42.8 °F 35% 29.98 in 1.9 mi East 5.8 mph - N/A   Smoke
5:30 AM 68 °F - 47 °F 35% 29.97 in 1 mi Calm Calm - -   Smoke
5:40 AM 68.0 °F - 46.4 °F 46% 29.98 in 1.9 mi SE 5.8 mph - N/A   Smoke
6:10 AM 68.0 °F - 46.4 °F 46% 29.98 in 1.9 mi SE 5.8 mph - N/A   Smoke
6:40 AM 68.0 °F - 46.4 °F 46% 29.98 in 1.6 mi SSE 5.8 mph - N/A   Smoke
7:10 AM 68.0 °F - 46.4 °F 46% 30.01 in 1.6 mi SE 6.9 mph - N/A   Smoke
7:40 AM 68.0 °F - 46.4 °F 46% 30.01 in 1.6 mi SE 5.8 mph - N/A   Smoke
8:10 AM 69.8 °F - 46.4 °F 43% 30.04 in 1.6 mi SE 5.8 mph - N/A   Smoke
8:30 AM 70 °F - 48 °F 35% 30.03 in 1 mi Calm Calm - -   Smoke
8:40 AM 71.6 °F - 48.2 °F 43% 30.04 in 1.6 mi SE 4.6 mph - N/A   Smoke
9:40 AM 77.0 °F - 48.2 °F 36% 30.06 in 1.7 mi ESE 8.1 mph - N/A   Smoke
10:10 AM 77.0 °F - 50.0 °F 39% 30.06 in 1.7 mi ESE 8.1 mph - N/A   Smoke
11:10 AM 82.4 °F - 51.8 °F 35% 30.06 in 1.9 mi ESE 8.1 mph - N/A   Smoke
11:30 AM 83 °F - 52 °F 23% 30.06 in 1 mi SE 4.6 mph - -   Smoke
11:40 AM 82.4 °F 81.4 °F 53.6 °F 37% 30.04 in 1.9 mi ESE 5.8 mph - N/A   Smoke
12:10 PM 84.2 °F 83.0 °F 55.4 °F 37% 30.04 in 2.2 mi South 5.8 mph - N/A   Smoke
1:10 PM 82.4 °F 82.5 °F 59.0 °F 45% 29.98 in 1.9 mi WSW 11.5 mph - N/A   Smoke
1:40 PM 82.4 °F 82.0 °F 57.2 °F 42% 29.98 in 2.2 mi WSW 11.5 mph - N/A   Smoke
2:10 PM 82.4 °F 82.0 °F 57.2 °F 42% 29.95 in 2.5 mi WSW 9.2 mph - N/A   Smoke
2:30 PM 82 °F - 59 °F 35% 29.97 in 1 mi West 9.2 mph - -   Smoke
2:40 PM 82.4 °F 82.0 °F 57.2 °F 42% 29.95 in 2.5 mi WSW 10.4 mph - N/A   Smoke
3:10 PM 80.6 °F 81.1 °F 59.0 °F 48% 29.95 in 2.5 mi West 10.4 mph - N/A   Smoke
3:40 PM 80.6 °F 81.5 °F 60.8 °F 51% 29.95 in 2.5 mi West 9.2 mph - N/A   Smoke
4:10 PM 80.6 °F 81.5 °F 60.8 °F 51% 29.95 in 2.5 mi WSW 11.5 mph - N/A   Smoke
4:40 PM 80.6 °F 81.5 °F 60.8 °F 51% 29.95 in 2.5 mi WSW 11.5 mph - N/A   Smoke
5:10 PM 78.8 °F - 62.6 °F 57% 29.95 in 2.5 mi West 9.2 mph - N/A   Smoke
5:30 PM 81 °F - 65 °F 50% 29.96 in 1 mi West 5.8 mph - -   Smoke
5:40 PM 78.8 °F - 62.6 °F 57% 29.95 in 2.5 mi West 8.1 mph - N/A   Smoke
6:10 PM 77.0 °F - 64.4 °F 65% 29.95 in 2.5 mi West 8.1 mph - N/A   Haze
6:40 PM 77.0 °F - 66.2 °F 69% 29.98 in 2.2 mi West 8.1 mph - N/A   Haze
7:10 PM 77.0 °F - 66.2 °F 69% 29.98 in 2.2 mi West 5.8 mph - N/A   Haze
8:10 PM 77.0 °F - 66.2 °F 69% 30.01 in 1.9 mi NW 3.5 mph - N/A   Haze
8:30 PM 73 °F - 67 °F 75% 30.01 in 1 mi Calm Calm - -   Haze
8:40 PM 75.2 °F - 66.2 °F 73% 30.01 in 1.9 mi NNW 4.6 mph - N/A   Haze
9:10 PM 75.2 °F - 66.2 °F 73% 30.01 in 1.3 mi Calm Calm - N/A   Haze
9:40 PM 75.2 °F - 66.2 °F 73% 30.04 in 1.1 mi South 3.5 mph - N/A   Haze
10:10 PM 75.2 °F - 66.2 °F 73% 30.04 in 1.1 mi NNE 3.5 mph - N/A   Haze
10:40 PM 75.2 °F - 66.2 °F 73% 30.04 in 0.9 mi Variable 3.5 mph - N/A   Haze
11:10 PM 75.2 °F - 66.2 °F 73% 30.04 in 0.9 mi South 3.5 mph - N/A   Haze
11:30 PM 72 °F - 66 °F 75% 30.03 in 1 mi Calm Calm - -   Haze
11:40 PM 75.2 °F - 64.4 °F 69% 30.01 in 1.1 mi ESE 3.5 mph - N/A   Haze